Hovedside
METAR-TAF:

METAR-TAF

Lufthavner :

Hasvik lufthavn

Hasvik, Norge

breddegrad: 70-29N, lengdegrad: 022-09E, høyde over havet: 10 m

Gjeldene værobservasjon

Denne rapporten ble laget for 1 time og 3 minutter siden, klokken 08:50 UTC
Vind 18 kt fra Vest med vindkast opp mot 28 kt
Temperatur 7°C
Luftfuktighet 66%
Trykk 1020 hPa
Sikt 10 km eller mer
Brutte skyer i en høyde av 3300 ft

METAR: ENHK 130850Z 28018G28KT 9999 BKN033 07/01 Q1020

Tid: 10:53 (09:53 UTC)


TAF: fraværende

Værobservasjoner og værvarsel for over 4000 flyplasser (METAR- og TAF-rapporter).

Tilgjengelige stasjoner er representert av de røde og gule prikkene på kartet.

Hold musepekeren over prikken for å se navnet på stasjonen.

Klikk så for å se værobservasjoner og -varsler.

For å forandre kartet kan du klikke på den grønne knappen med svart kryss for å zoome inn, på den grønne knappen med strek for å zoome ut, eller på de grønne pilene for å se tilstøtende kart.


METAR-TAF: